Flag for Algeria Weather past 2 weeks in Constantine, Algeria

Now
37 °F

Passing clouds.


Feels Like: 34 °F
Forecast: 44 / 59 °F
Wind: 5 mph from Northwest

Location: Constantine Airport

Current Time: Jan 29, 2015 at 6:22:18 AM

Latest Report: Jan 29, 2015 at 5:30 AM


Visibility: N/A

Pressure: 30.04 "Hg

Humidity: 87%

Dew point: 34 °F

Location of ConstantineLocation

Historic Weather in Constantine — Graph

°F

Constantine temperature yesterday

Maximum temperature yesterday: 45 °F (at 12:30 PM)
Minimum temperature yesterday: 39 °F (at 12:30 AM)
Average temperature yesterday: 42 °F

Past Weeks' High & Low Weather Summary

 TemperatureHumidityPressure
High68 °F (Jan 15, 2:30 PM)94% (Jan 16, 3:00 AM)30.36 "Hg (Jan 16, 3:00 AM)
Low30 °F (Jan 27, 4:00 AM)38% (Jan 15, 2:30 PM)29.65 "Hg (Jan 22, 2:00 PM)
Average42 °F79%30.01 "Hg
* Reported Jan 14 5:00 AM — Jan 29 5:00 AM, Constantine, Weather by CustomWeather, © 2014

Note: Actual official high and low records may vary slightly from our data, if they occured in-between our weather recording intervals... More about our weather records

Advertising

Constantine weather history for previous 24 hours

 ConditionsComfort  
Time TempWeatherWind HumidityBarometerVisibility
5:00 AM
Jan 29
37 °FPassing clouds.9 mph87%30.04 "HgN/A
4:30 AM39 °FPassing clouds.5 mph87%30.04 "HgN/A
4:00 AM39 °FPassing clouds.5 mph87%30.04 "HgN/A
3:30 AM41 °FPassing clouds.9 mph81%30.07 "Hg5 mi
3:00 AM41 °FPassing clouds.9 mph87%30.07 "Hg5 mi
2:30 AM39 °FLight rain. Passing clouds.5 mph87%30.07 "Hg5 mi
2:00 AM39 °FLight rain. Passing clouds.7 mph87%30.07 "Hg5 mi
1:30 AM39 °FPassing clouds.12 mph87%30.07 "Hg5 mi
1:00 AM41 °FPassing clouds.12 mph87%30.07 "Hg5 mi
12:30 AM39 °FPassing clouds.9 mph87%30.09 "Hg5 mi
12:00 AM39 °FPassing clouds.9 mph87%30.09 "Hg5 mi
11:30 PM
Jan 28
39 °FPassing clouds.7 mph93%30.09 "Hg5 mi
11:00 PM41 °FLight rain. Passing clouds.7 mph81%30.12 "Hg5 mi
10:30 PM41 °FPassing clouds.5 mph87%30.09 "Hg5 mi
10:00 PM41 °FPassing clouds.12 mph87%30.09 "Hg5 mi
9:30 PM41 °FLight rain. Passing clouds.12 mph81%30.09 "Hg5 mi
9:00 PM41 °FPassing clouds.12 mph81%30.09 "HgN/A
8:30 PM41 °FPassing clouds.12 mph76%30.09 "HgN/A
8:00 PM43 °FPassing clouds.12 mph71%30.09 "HgN/A
7:30 PM43 °FPassing clouds.14 mph76%30.09 "HgN/A
7:00 PM43 °FPassing clouds.14 mph76%30.09 "HgN/A
6:30 PM41 °FPassing clouds.14 mph81%30.09 "HgN/A
6:00 PM41 °FLight rain. Passing clouds.14 mph81%30.09 "Hg5 mi
5:30 PM45 °FPartly sunny.17 mph66%30.09 "HgN/A
5:00 PM45 °FScattered clouds.21 mph66%30.07 "HgN/A
4:30 PM45 °FScattered clouds.21 mph66%30.07 "HgN/A
4:00 PM45 °FScattered clouds.14 mph66%30.07 "HgN/A
3:30 PM45 °FBroken clouds.16 mph71%30.07 "Hg5 mi
3:00 PM45 °FBroken clouds.16 mph71%30.07 "Hg5 mi
2:30 PM45 °FBroken clouds.18 mph76%30.07 "Hg5 mi
2:00 PM43 °FBroken clouds.14 mph81%30.07 "Hg5 mi
1:30 PM43 °FBroken clouds.14 mph81%30.09 "Hg5 mi
1:00 PM43 °FBroken clouds.21 mph76%30.09 "Hg5 mi
12:30 PM45 °FBroken clouds.18 mph71%30.09 "Hg5 mi
12:00 PM43 °FBroken clouds.23 mph81%30.09 "Hg5 mi
11:30 AM43 °FBroken clouds.18 mph81%30.09 "Hg5 mi
11:00 AM43 °FBroken clouds.14 mph76%30.09 "Hg5 mi
10:30 AM43 °FBroken clouds.16 mph81%30.07 "Hg5 mi
10:00 AM43 °FBroken clouds.9 mph81%30.07 "Hg5 mi
9:30 AM41 °FBroken clouds.18 mph87%30.07 "Hg4 mi
9:00 AM41 °FLight rain. Broken clouds.18 mph87%30.07 "Hg4 mi
8:30 AM41 °FLight rain. Broken clouds.12 mph87%30.04 "Hg4 mi
8:00 AM41 °FBroken clouds.12 mph87%30.04 "Hg4 mi
7:30 AM41 °FPartly cloudy.6 mph93%30.04 "Hg4 mi
7:00 AM41 °FLight rain. Partly cloudy.8 mph87%30.04 "Hg4 mi
6:30 AM41 °FLight rain. Partly cloudy.12 mph87%30.04 "Hg4 mi
6:00 AM41 °FPartly cloudy.13 mph81%30.04 "Hg4 mi
Weather by CustomWeather, © 2014

See weather overviewHow to use our weather pages